Flag for Canada Weather past 2 weeks in Red Deer, Alberta, Canada

Now
46 °F

Partly sunny.


Feels Like: 40 °F
Forecast: 25 / 48 °F
Wind: 16 mph from Southeast

Location: Red Deer

Current Time: Oct 25, 2014 at 4:26:04 PM

Latest Report: Oct 25, 2014 at 4:00 PM


Visibility: 15 mi

Pressure: 29.79 "Hg

Humidity: 43%

Dew point: 25 °F

Location of Red DeerLocation

Historic Weather in Red Deer — Graph

°F

Red Deer temperature yesterday

Maximum temperature yesterday: 52 °F (at 4:00 PM)
Minimum temperature yesterday: 28 °F (at 7:00 AM)
Average temperature yesterday: 41 °F

Past Weeks' High & Low Weather Summary

 TemperatureHumidityPressure
High72 °F (Oct 10, 4:00 PM)100% (Oct 16, 4:00 AM)30.14 "Hg (Oct 16, 4:00 AM)
Low23 °F (Oct 25, 4:00 AM)20% (Oct 23, 3:00 PM)29.51 "Hg (Oct 14, 9:00 AM)
Average46 °F63%29.79 "Hg
* Reported Oct 10 3:00 PM — Oct 25 3:00 PM, Red Deer, Weather by CustomWeather, © 2014

Note: Actual official high and low records may vary slightly from our data, if they occured in-between our weather recording intervals... More about our weather records

Advertising

Red Deer weather history for previous 24 hours

 ConditionsComfort  
Time TempWeatherWind HumidityBarometerVisibility
3:00 PM
Oct 25
45 °FPartly sunny.15 mph46%29.83 "Hg15 mi
2:00 PM45 °FPartly sunny.18 mph46%29.87 "Hg15 mi
1:00 PM41 °FPartly sunny.15 mph57%29.91 "Hg15 mi
12:00 PM41 °FPartly sunny.17 mph57%29.98 "Hg15 mi
11:00 AM37 °FOvercast.12 mph65%30.01 "Hg15 mi
10:00 AM32 °FOvercast.5 mph75%30.06 "Hg15 mi
9:00 AM27 °FOvercast.2 mph86%30.07 "Hg15 mi
8:00 AM25 °FCold.No wind86%30.10 "Hg15 mi
7:00 AM23 °FOvercast.3 mph86%30.11 "Hg15 mi
6:00 AM23 °FPartly cloudy.No wind93%30.13 "Hg15 mi
5:00 AM25 °FPassing clouds.3 mph80%30.11 "Hg15 mi
4:00 AM23 °FClear.2 mph86%30.12 "Hg15 mi
3:00 AM27 °FPassing clouds.3 mph80%30.14 "Hg15 mi
2:00 AM25 °FClear.3 mph93%30.14 "Hg15 mi
1:00 AM27 °FClear.3 mph86%30.14 "Hg15 mi
12:00 AM27 °FClear.6 mph80%30.14 "Hg15 mi
11:00 PM
Oct 24
32 °FPassing clouds.6 mph75%30.11 "Hg15 mi
10:00 PM32 °FPassing clouds.6 mph75%30.10 "Hg15 mi
9:00 PM34 °FPassing clouds.8 mph75%30.09 "Hg15 mi
8:00 PM39 °FPassing clouds.7 mph56%30.08 "Hg15 mi
7:00 PM43 °FScattered showers. Broken clouds.5 mph53%30.06 "Hg15 mi
6:00 PM43 °FBroken clouds.6 mph57%30.04 "Hg15 mi
5:00 PM52 °FScattered showers. Broken clouds.6 mph35%29.99 "Hg15 mi
4:00 PM52 °FScattered clouds.8 mph35%29.97 "Hg15 mi
Weather by CustomWeather, © 2014

See weather overviewHow to use our weather pages